Location: *
(45.1961°N, 1.9694°E)
Time: 16:23:32
(UTC+00:00)

Timation 2 Rocket - Pass Details

Date: 25 August 2019
Orbit: 907 x 1074 km, 70.0° (Epoch: 23 September)

Event Time Altitude Azimuth Distance (km) Brightness Sun altitude
Exits shadow 23:46:46 63° 19° (NNE) 1,150 4.4 -34.2°
Drops below altitude 10° 23:52:09 10° 27° (NNE) 2,798 7.0 -34.2°
Sets 23:54:41 0° 28° (NNE) 3,728 7.9 -34.2°
